Back to catalog

GONETS M 22

AliveCommunicationsPO
NORAD 47229·PAYLOAD·🇷🇺 Russia

Launched Dec 3, 2020 from Plesetsk Cosmodrome

Loading…

Next Passes (next 24 hours)

TLE

FreshSource: Space-Track

Epoch: Sep 14, 2026, 15:01 UTC

1 47229U 20091C   26257.62621630 -.00000003  00000-0 -90909-4 0  9990
2 47229  82.4969 246.4219 0021485 344.5205  15.5215 12.42894601262135

Track GONETS M 22 in real time with AllMySat

Download on the App Store